THOR ABLESTAR DEB, 172

Orbit data source: Space-Track

THOR ABLESTAR DEB, 172 is space debris in LEO originally from a launch on Thu, 29 Jun 1961 UTC launched from the Air Force Eastern Test Range (AFETR). Debris objects in space refer to the collection of defunct objects orbiting the Earth. Examples of debris include non-operational satellites, rocket bodies, and fragments generated from explosions, collisions, or faulty payload assembly.

Loading next visibility...
Identifier
172, 1961-015AY
Orbit
LEO
Country
Flag of USUS
Related business
Manufacturer
Unknown
Mission
Spacecraft
Bus & Motor
Unknown
Mass
Unknown
Launch date (UTC)
1961-06-29 (65 years ago)
Launch vehicle
Unknown
Launch site
Air Force Eastern Test Range (AFETR)
Object type
Payload
Rocket body
Debris
Shape & HBR
Unknown shape, 0.2 m
Radar Cross Section
Medium (>0.1 m² and <1 m²)

Expand to show TLE details & history
Last TLE update: 11 hours ago

TLE from 11 hours ago
0 THOR ABLESTAR DEB
1 00172U 61015AY  26237.34494197  .00000330  00000-0  51084-3 0  9991
2 00172  67.0693   9.8216 0129732  13.4163 347.0296 13.59302811214518
Epoch: 2026-08-25T08:16Z
TLE epoch observation values (Epoch: 2026-08-25T08:16:42.986Z)
Latitude
-0.00007°
Longitude
-87.97117°
Altitude
946.586 km
Speed
7.425 km/s
True Right ascension
00h 39m 17s
True Declination
0° 00' 00"
Sunlit
Object was in full shadow at epoch
Visualization orbit readout
Latitude
Unknown
Longitude
Unknown
Altitude
Unknown
Speed
Unknown
Apparent Right ascension
Unknown
Apparent Declination
Unknown
Sunlit
N/A
Visualization observer readout
Local Sidereal Time
10:58:30
Azimuth
Unknown
Elevation
Unknown
Doppler factor
Unknown
Orbital elements
Apogee altitude
1,132.807 km
Perigee altitude
940.421 km
Semi-major axis
7,414.751 km
Eccentricity
0.01297
Inclination
67.0693°
RAAN
9.8216°
Arg. of periapsis
13.4163°
True anomaly
346.69058°
Mean anomaly
347.0296°
Eccentric anomaly
346.86063°
Mean motion
3.39937 °/min
Orbital period
105.9 mins
BSTAR
0.00051084

Documentation

Showing up to 5 results
|